Location: Crescent
(42.8242°N, 73.7329°W)
Time: 18:09:22
(UTC+00:00)

Vanguard 1 - Pass Details

Date: 19 February 2026
Orbit: 653 x 3818 km, 34.2° (Epoch: 5 March)

Event Time Altitude Azimuth Distance (km) Brightness Sun altitude
Rises 00:19:40 0° 274° (W) 5,992 15.7 -20.6°
Reaches altitude 10° 00:23:06 10° 270° (W) 5,330 15.0 -21.3°
Maximum altitude 00:39:55 56° 199° (SSW) 3,978 13.0 -24.3°
Enters shadow 00:56:45 22° 135° (SE) 5,932 13.5 -27.4°
Drops below altitude 10° 01:02:15 10° 130° (SE) 6,828 - -28.4°
Sets 01:07:27 0° 126° (SE) 7,693 - -29.3°
